Time,TemperatureF,DewpointF,PressureIn,WindDirection,WindDirectionDegrees,WindSpeedMPH,WindSpeedGustMPH,Humidity,HourlyPrecipIn,Conditions,Clouds,dailyrainin,SoftwareType,DateUTC
2013-03-29 00:04:00,44.8,14.5,29.56,SSW,202,6.3,7.6,29,0.00,,---,0.00,VWS V13.01,2013-03-29 04:04:00,
2013-03-29 00:14:00,44.6,15.1,29.56,SW,222,5.8,8.7,30,0.00,,---,0.00,VWS V13.01,2013-03-29 04:14:00,
2013-03-29 00:19:00,44.6,15.1,29.56,South,187,5.8,8.7,30,0.00,,---,0.00,VWS V13.01,2013-03-29 04:19:00,
2013-03-29 00:24:00,44.4,15.7,29.56,SSW,196,4.9,9.2,31,0.00,,---,0.00,VWS V13.01,2013-03-29 04:24:00,
2013-03-29 00:29:00,44.2,15.5,29.56,South,187,5.4,12.8,31,0.00,,---,0.00,VWS V13.01,2013-03-29 04:29:00,
2013-03-29 00:34:00,44.4,15.7,29.56,North,357,2.2,8.7,31,0.00,,---,0.00,VWS V13.01,2013-03-29 04:34:00,
2013-03-29 00:39:00,44.4,15.7,29.56,SW,225,5.8,7.6,31,0.00,,---,0.00,VWS V13.01,2013-03-29 04:39:00,
2013-03-29 00:44:00,44.6,15.1,29.56,North,357,5.8,8.7,30,0.00,,---,0.00,VWS V13.01,2013-03-29 04:44:00,
2013-03-29 00:49:00,44.6,15.1,29.56,North,357,7.6,8.7,30,0.00,,---,0.00,VWS V13.01,2013-03-29 04:49:00,
2013-03-29 00:59:00,44.2,14.8,29.56,SSW,206,8.7,8.7,30,0.00,,---,0.00,VWS V13.01,2013-03-29 04:59:00,
2013-03-29 01:04:00,44.6,15.1,29.56,SSW,207,2.2,8.7,30,0.00,,---,0.00,VWS V13.01,2013-03-29 05:04:00,
2013-03-29 01:09:00,44.6,15.1,29.56,SSE,158,5.4,5.8,30,0.00,,---,0.00,VWS V13.01,2013-03-29 05:09:00,
2013-03-29 01:14:00,44.2,14.8,29.56,SW,214,5.4,9.6,30,0.00,,---,0.00,VWS V13.01,2013-03-29 05:14:00,
2013-03-29 01:19:00,44.4,14.9,29.56,SSW,212,3.1,6.3,30,0.00,,---,0.00,VWS V13.01,2013-03-29 05:19:00,
2013-03-29 01:24:00,44.1,15.4,29.56,SSW,211,3.6,8.7,31,0.00,,---,0.00,VWS V13.01,2013-03-29 05:24:00,
2013-03-29 01:29:00,43.9,15.2,29.56,South,178,2.7,10.5,31,0.00,,---,0.00,VWS V13.01,2013-03-29 05:29:00,
2013-03-29 01:34:00,43.7,15.1,29.56,WSW,237,5.4,6.3,31,0.00,,---,0.00,VWS V13.01,2013-03-29 05:34:00,
2013-03-29 01:39:00,43.7,15.1,29.56,SSW,207,4.0,5.8,31,0.00,,---,0.00,VWS V13.01,2013-03-29 05:39:00,
2013-03-29 01:44:00,43.5,14.2,29.56,South,183,6.3,10.5,30,0.00,,---,0.00,VWS V13.01,2013-03-29 05:44:00,
2013-03-29 01:49:00,43.5,14.2,29.56,SW,227,4.0,8.7,30,0.00,,---,0.00,VWS V13.01,2013-03-29 05:49:00,
2013-03-29 01:54:00,43.5,14.2,29.56,South,187,5.8,7.6,30,0.00,,---,0.00,VWS V13.01,2013-03-29 05:54:00,
2013-03-29 01:59:00,43.3,14.0,29.56,West,280,2.7,8.7,30,0.00,,---,0.00,VWS V13.01,2013-03-29 05:59:00,
2013-03-29 02:04:00,43.3,14.0,29.56,SW,219,2.7,6.3,30,0.00,,---,0.00,VWS V13.01,2013-03-29 06:04:00,
2013-03-29 02:14:00,43.2,13.8,29.56,SSW,194,8.1,8.7,30,0.00,,---,0.00,VWS V13.01,2013-03-29 06:14:00,
2013-03-29 02:19:00,43.2,13.8,29.56,SW,235,5.8,8.1,30,0.00,,---,0.00,VWS V13.01,2013-03-29 06:19:00,
2013-03-29 02:24:00,43.2,13.8,29.56,South,177,3.6,11.0,30,0.00,,---,0.00,VWS V13.01,2013-03-29 06:24:00,
2013-03-29 02:29:00,43.3,13.2,29.56,SSW,212,6.3,10.5,29,0.00,,---,0.00,VWS V13.01,2013-03-29 06:29:00,
2013-03-29 02:39:00,43.3,13.2,29.56,North,357,4.0,10.5,29,0.00,,---,0.00,VWS V13.01,2013-03-29 06:39:00,
2013-03-29 02:44:00,43.3,13.2,29.56,SSW,206,4.5,8.7,29,0.00,,---,0.00,VWS V13.01,2013-03-29 06:44:00,
2013-03-29 02:49:00,43.3,13.2,29.56,WSW,243,3.6,6.3,29,0.00,,---,0.00,VWS V13.01,2013-03-29 06:49:00,
2013-03-29 02:54:00,43.3,13.2,29.56,SW,232,4.9,6.3,29,0.00,,---,0.00,VWS V13.01,2013-03-29 06:54:00,
2013-03-29 02:59:00,43.2,13.1,29.56,SW,223,4.0,10.1,29,0.00,,---,0.00,VWS V13.01,2013-03-29 06:59:00,
2013-03-29 03:04:00,43.2,13.1,29.56,SSW,206,4.0,12.3,29,0.00,,---,0.00,VWS V13.01,2013-03-29 07:04:00,
2013-03-29 03:09:00,43.2,13.1,29.56,WSW,247,2.7,8.1,29,0.00,,---,0.00,VWS V13.01,2013-03-29 07:09:00,
2013-03-29 03:19:00,43.0,12.9,29.56,SSW,202,6.3,8.3,29,0.00,,---,0.00,VWS V13.01,2013-03-29 07:19:00,
2013-03-29 03:24:00,42.8,12.0,29.56,SW,236,4.9,8.7,28,0.00,,---,0.00,VWS V13.01,2013-03-29 07:24:00,
2013-03-29 03:29:00,42.6,12.6,29.56,South,182,6.3,7.6,29,0.00,,---,0.00,VWS V13.01,2013-03-29 07:29:00,
2013-03-29 03:34:00,42.4,12.4,29.56,SSW,205,5.8,8.1,29,0.00,,---,0.00,VWS V13.01,2013-03-29 07:34:00,
2013-03-29 03:39:00,42.3,12.3,29.56,SSW,200,8.1,8.1,29,0.00,,---,0.00,VWS V13.01,2013-03-29 07:39:00,
2013-03-29 03:49:00,41.7,11.8,29.56,West,275,5.4,8.1,29,0.00,,---,0.00,VWS V13.01,2013-03-29 07:49:00,
2013-03-29 03:54:00,41.7,11.8,29.56,South,186,6.7,8.3,29,0.00,,---,0.00,VWS V13.01,2013-03-29 07:54:00,
2013-03-29 03:59:00,41.5,11.7,29.56,WSW,238,5.4,6.7,29,0.00,,---,0.00,VWS V13.01,2013-03-29 07:59:00,
2013-03-29 04:04:00,41.4,11.5,29.56,SSW,193,3.1,5.8,29,0.00,,---,0.00,VWS V13.01,2013-03-29 08:04:00,
2013-03-29 04:09:00,41.2,11.4,29.56,SSW,200,6.3,6.3,29,0.00,,---,0.00,VWS V13.01,2013-03-29 08:09:00,
2013-03-29 04:14:00,41.0,11.2,29.56,WSW,256,4.9,6.3,29,0.00,,---,0.00,VWS V13.01,2013-03-29 08:14:00,
2013-03-29 04:19:00,40.8,11.8,29.56,South,190,5.4,8.7,30,0.00,,---,0.00,VWS V13.01,2013-03-29 08:19:00,
2013-03-29 04:24:00,40.6,11.6,29.56,SSW,207,4.0,6.7,30,0.00,,---,0.00,VWS V13.01,2013-03-29 08:24:00,
2013-03-29 04:29:00,40.6,11.6,29.56,SSW,199,3.1,5.8,30,0.00,,---,0.00,VWS V13.01,2013-03-29 08:29:00,
2013-03-29 04:34:00,40.5,11.5,29.56,SW,214,2.7,6.3,30,0.00,,---,0.00,VWS V13.01,2013-03-29 08:34:00,
2013-03-29 04:39:00,40.3,11.3,29.56,SW,222,3.6,5.8,30,0.00,,---,0.00,VWS V13.01,2013-03-29 08:39:00,
2013-03-29 04:49:00,40.1,11.2,29.53,WSW,244,0.0,8.1,30,0.00,,---,0.00,VWS V13.01,2013-03-29 08:49:00,
2013-03-29 04:54:00,40.1,11.2,29.53,SW,227,2.7,5.8,30,0.00,,---,0.00,VWS V13.01,2013-03-29 08:54:00,
2013-03-29 04:59:00,39.9,11.0,29.53,SW,217,5.8,9.2,30,0.00,,---,0.00,VWS V13.01,2013-03-29 08:59:00,
2013-03-29 05:04:00,39.9,11.0,29.53,West,264,4.0,6.3,30,0.00,,---,0.00,VWS V13.01,2013-03-29 09:04:00,
2013-03-29 05:09:00,39.7,10.9,29.53,SSE,161,0.0,8.7,30,0.00,,---,0.00,VWS V13.01,2013-03-29 09:09:00,
2013-03-29 05:14:00,39.7,10.9,29.53,SW,220,8.3,8.3,30,0.00,,---,0.00,VWS V13.01,2013-03-29 09:14:00,
2013-03-29 05:19:00,39.6,10.7,29.53,SSW,202,3.1,8.3,30,0.00,,---,0.00,VWS V13.01,2013-03-29 09:19:00,
2013-03-29 05:24:00,39.6,10.7,29.53,SSW,207,2.7,8.1,30,0.00,,---,0.00,VWS V13.01,2013-03-29 09:24:00,
2013-03-29 05:29:00,39.4,10.5,29.53,SW,227,4.0,6.3,30,0.00,,---,0.00,VWS V13.01,2013-03-29 09:29:00,
2013-03-29 05:34:00,39.4,10.5,29.53,SSW,210,3.1,8.1,30,0.00,,---,0.00,VWS V13.01,2013-03-29 09:34:00,
2013-03-29 05:44:00,39.2,10.4,29.53,SSW,198,5.4,7.6,30,0.00,,---,0.00,VWS V13.01,2013-03-29 09:44:00,
2013-03-29 05:49:00,39.2,10.4,29.53,SW,219,4.0,6.3,30,0.00,,---,0.00,VWS V13.01,2013-03-29 09:49:00,
2013-03-29 05:54:00,39.2,10.4,29.53,SW,220,3.1,8.7,30,0.00,,---,0.00,VWS V13.01,2013-03-29 09:54:00,
2013-03-29 05:59:00,39.0,11.0,29.53,SSE,165,3.1,5.4,31,0.00,,---,0.00,VWS V13.01,2013-03-29 09:59:00,
2013-03-29 06:04:00,39.0,11.0,29.53,South,179,5.8,8.1,31,0.00,,---,0.00,VWS V13.01,2013-03-29 10:04:00,
2013-03-29 06:09:00,39.0,11.0,29.53,South,187,4.0,6.7,31,0.00,,---,0.00,VWS V13.01,2013-03-29 10:09:00,
2013-03-29 06:19:00,38.8,10.8,29.53,SW,227,2.7,6.3,31,0.00,,---,0.00,VWS V13.01,2013-03-29 10:19:00,
2013-03-29 06:24:00,38.7,10.6,29.53,SSW,204,5.4,6.7,31,0.00,,---,0.00,VWS V13.01,2013-03-29 10:24:00,
2013-03-29 06:29:00,38.7,10.6,29.53,SSW,207,6.3,6.3,31,0.00,,---,0.00,VWS V13.01,2013-03-29 10:29:00,
2013-03-29 06:34:00,38.7,10.6,29.53,SSW,194,4.0,6.3,31,0.00,,---,0.00,VWS V13.01,2013-03-29 10:34:00,
2013-03-29 06:39:00,38.5,10.5,29.53,SSW,205,3.1,8.3,31,0.00,,---,0.00,VWS V13.01,2013-03-29 10:39:00,
2013-03-29 06:44:00,38.5,11.2,29.53,South,191,5.8,6.7,32,0.00,,---,0.00,VWS V13.01,2013-03-29 10:44:00,
2013-03-29 06:49:00,38.5,11.2,29.53,South,187,6.7,6.7,32,0.00,,---,0.00,VWS V13.01,2013-03-29 10:49:00,
2013-03-29 06:54:00,38.5,11.2,29.53,SSW,201,7.6,7.6,32,0.00,,---,0.00,VWS V13.01,2013-03-29 10:54:00,
2013-03-29 06:59:00,38.5,11.2,29.53,SSW,213,4.0,7.6,32,0.00,,---,0.00,VWS V13.01,2013-03-29 10:59:00,
2013-03-29 07:04:00,38.5,11.2,29.53,South,190,5.4,8.1,32,0.00,,---,0.00,VWS V13.01,2013-03-29 11:04:00,
2013-03-29 07:09:00,38.8,11.5,29.53,South,188,5.4,7.6,32,0.00,,---,0.00,VWS V13.01,2013-03-29 11:09:00,
2013-03-29 07:14:00,41.7,12.6,29.53,SW,225,6.3,6.7,30,0.00,,---,0.00,VWS V13.01,2013-03-29 11:14:00,
2013-03-29 07:19:00,43.5,13.4,29.53,SSE,167,3.6,6.3,29,0.00,,---,0.00,VWS V13.01,2013-03-29 11:19:00,
2013-03-29 07:24:00,42.4,12.4,29.53,South,180,4.0,7.6,29,0.00,,---,0.00,VWS V13.01,2013-03-29 11:24:00,
2013-03-29 07:29:00,42.4,12.4,29.53,SSW,195,4.0,8.1,29,0.00,,---,0.00,VWS V13.01,2013-03-29 11:29:00,
2013-03-29 07:34:00,42.8,12.0,29.56,SSW,195,4.9,8.3,28,0.00,,---,0.00,VWS V13.01,2013-03-29 11:34:00,
2013-03-29 07:39:00,43.2,12.3,29.56,SSW,194,5.4,10.1,28,0.00,,---,0.00,VWS V13.01,2013-03-29 11:39:00,
2013-03-29 07:44:00,43.5,12.6,29.56,SW,215,3.6,8.1,28,0.00,,---,0.00,VWS V13.01,2013-03-29 11:44:00,
2013-03-29 07:49:00,43.7,12.8,29.56,SSW,206,4.0,6.3,28,0.00,,---,0.00,VWS V13.01,2013-03-29 11:49:00,
2013-03-29 07:59:00,44.8,13.7,29.56,North,357,4.0,6.3,28,0.00,,---,0.00,VWS V13.01,2013-03-29 11:59:00,
2013-03-29 08:09:00,44.6,12.7,29.56,West,280,5.4,7.6,27,0.00,,---,0.00,VWS V13.01,2013-03-29 12:09:00,
2013-03-29 08:19:00,45.3,13.3,29.56,North,357,4.9,7.6,27,0.00,,---,0.00,VWS V13.01,2013-03-29 12:19:00,
2013-03-29 08:24:00,45.9,13.8,29.56,North,357,4.0,8.7,27,0.00,,---,0.00,VWS V13.01,2013-03-29 12:24:00,
2013-03-29 08:29:00,46.2,14.1,29.56,North,357,5.8,8.3,27,0.00,,---,0.00,VWS V13.01,2013-03-29 12:29:00,
2013-03-29 08:34:00,46.8,14.6,29.56,North,357,8.7,11.4,27,0.00,,---,0.00,VWS V13.01,2013-03-29 12:34:00,
2013-03-29 08:39:00,46.6,14.4,29.56,North,357,4.0,8.7,27,0.00,,---,0.00,VWS V13.01,2013-03-29 12:39:00,
2013-03-29 08:44:00,46.8,11.9,29.56,North,357,3.6,10.1,24,0.00,,---,0.00,VWS V13.01,2013-03-29 12:44:00,
2013-03-29 08:49:00,46.4,11.6,29.56,North,357,7.6,14.5,24,0.00,,---,0.00,VWS V13.01,2013-03-29 12:49:00,
2013-03-29 08:54:00,45.5,13.5,29.56,North,357,5.4,10.5,27,0.00,,---,0.00,VWS V13.01,2013-03-29 12:54:00,
2013-03-29 08:59:00,45.5,13.5,29.56,North,357,3.6,9.2,27,0.00,,---,0.00,VWS V13.01,2013-03-29 12:59:00,
2013-03-29 09:04:00,46.4,14.2,29.56,SW,229,5.8,7.6,27,0.00,,---,0.00,VWS V13.01,2013-03-29 13:04:00,
2013-03-29 09:09:00,46.4,11.6,29.56,SW,229,6.3,12.3,24,0.00,,---,0.00,VWS V13.01,2013-03-29 13:09:00,
2013-03-29 09:14:00,46.9,12.1,29.56,SSE,150,7.6,10.5,24,0.00,,---,0.00,VWS V13.01,2013-03-29 13:14:00,
2013-03-29 09:19:00,47.3,12.4,29.59,South,191,8.7,11.0,24,0.00,,---,0.00,VWS V13.01,2013-03-29 13:19:00,
2013-03-29 09:29:00,47.3,12.4,29.59,SW,219,7.6,11.0,24,0.00,,---,0.00,VWS V13.01,2013-03-29 13:29:00,
2013-03-29 09:39:00,46.8,11.9,29.59,South,171,10.1,13.2,24,0.00,,---,0.00,VWS V13.01,2013-03-29 13:39:00,
2013-03-29 09:44:00,47.7,12.7,29.59,NW,322,8.3,13.2,24,0.00,,---,0.00,VWS V13.01,2013-03-29 13:44:00,
2013-03-29 09:54:00,47.1,12.2,29.59,South,190,7.6,13.2,24,0.00,,---,0.00,VWS V13.01,2013-03-29 13:54:00,
2013-03-29 09:59:00,47.8,12.8,29.59,WSW,255,2.7,10.1,24,0.00,,---,0.00,VWS V13.01,2013-03-29 13:59:00,
2013-03-29 10:09:00,48.7,13.6,29.59,SW,220,8.1,15.4,24,0.00,,---,0.00,VWS V13.01,2013-03-29 14:09:00,
2013-03-29 10:14:00,49.1,13.9,29.59,North,357,5.8,9.2,24,0.00,,---,0.00,VWS V13.01,2013-03-29 14:14:00,
2013-03-29 10:19:00,49.5,14.2,29.59,North,357,6.3,11.0,24,0.00,,---,0.00,VWS V13.01,2013-03-29 14:19:00,
2013-03-29 10:24:00,49.8,11.5,29.59,SW,217,3.6,11.0,21,0.00,,---,0.00,VWS V13.01,2013-03-29 14:24:00,
2013-03-29 10:29:00,50.0,14.6,29.59,North,357,9.6,10.1,24,0.00,,---,0.00,VWS V13.01,2013-03-29 14:29:00,
2013-03-29 10:34:00,50.4,11.9,29.59,North,357,7.6,15.4,21,0.00,,---,0.00,VWS V13.01,2013-03-29 14:34:00,
2013-03-29 10:39:00,49.5,11.2,29.59,WNW,298,6.3,11.0,21,0.00,,---,0.00,VWS V13.01,2013-03-29 14:39:00,
2013-03-29 10:44:00,49.3,11.0,29.59,South,170,10.5,11.4,21,0.00,,---,0.00,VWS V13.01,2013-03-29 14:44:00,
2013-03-29 10:49:00,50.2,11.8,29.59,South,185,8.3,10.5,21,0.00,,---,0.00,VWS V13.01,2013-03-29 14:49:00,
2013-03-29 10:54:00,50.9,12.4,29.59,North,357,3.6,11.4,21,0.00,,---,0.00,VWS V13.01,2013-03-29 14:54:00,
2013-03-29 10:59:00,51.4,12.8,29.59,North,357,5.8,11.0,21,0.00,,---,0.00,VWS V13.01,2013-03-29 14:59:00,
2013-03-29 11:04:00,50.9,12.4,29.59,North,357,4.0,11.0,21,0.00,,---,0.00,VWS V13.01,2013-03-29 15:04:00,
2013-03-29 11:09:00,49.8,11.5,29.59,SW,224,4.0,11.0,21,0.00,,---,0.00,VWS V13.01,2013-03-29 15:09:00,
2013-03-29 11:14:00,50.7,12.2,29.59,North,357,9.6,9.6,21,0.00,,---,0.00,VWS V13.01,2013-03-29 15:14:00,
2013-03-29 11:19:00,51.6,13.0,29.59,SSW,192,5.8,12.8,21,0.00,,---,0.00,VWS V13.01,2013-03-29 15:19:00,
2013-03-29 11:24:00,52.2,13.4,29.59,SE,140,6.3,10.5,21,0.00,,---,0.00,VWS V13.01,2013-03-29 15:24:00,
2013-03-29 11:29:00,52.5,13.7,29.59,North,357,6.3,10.5,21,0.00,,---,0.00,VWS V13.01,2013-03-29 15:29:00,
2013-03-29 11:34:00,51.1,12.5,29.59,North,357,5.8,11.0,21,0.00,,---,0.00,VWS V13.01,2013-03-29 15:34:00,
2013-03-29 11:39:00,50.5,12.1,29.59,North,357,2.2,12.8,21,0.00,,---,0.00,VWS V13.01,2013-03-29 15:39:00,
2013-03-29 11:44:00,51.8,13.1,29.59,SSE,150,5.8,8.7,21,0.00,,---,0.00,VWS V13.01,2013-03-29 15:44:00,
2013-03-29 11:54:00,52.3,13.6,29.59,SSW,213,5.4,8.3,21,0.00,,---,0.00,VWS V13.01,2013-03-29 15:54:00,
2013-03-29 11:59:00,52.7,13.9,29.59,SSE,165,5.4,8.3,21,0.00,,---,0.00,VWS V13.01,2013-03-29 15:59:00,
2013-03-29 12:04:00,53.6,13.5,29.59,SW,224,8.3,8.7,20,0.00,,---,0.00,VWS V13.01,2013-03-29 16:04:00,
2013-03-29 12:09:00,54.0,13.8,29.59,South,172,5.8,10.1,20,0.00,,---,0.00,VWS V13.01,2013-03-29 16:09:00,
2013-03-29 12:14:00,52.9,14.0,29.59,WSW,239,4.0,9.6,21,0.00,,---,0.00,VWS V13.01,2013-03-29 16:14:00,
2013-03-29 12:19:00,53.6,13.5,29.56,South,185,5.8,13.2,20,0.00,,---,0.00,VWS V13.01,2013-03-29 16:19:00,
2013-03-29 12:24:00,53.1,14.2,29.56,South,176,3.1,9.6,21,0.00,,---,0.00,VWS V13.01,2013-03-29 16:24:00,
2013-03-29 12:29:00,52.2,13.4,29.56,West,273,3.1,7.2,21,0.00,,---,0.00,VWS V13.01,2013-03-29 16:29:00,
2013-03-29 12:34:00,52.3,13.6,29.56,SSE,163,5.4,8.3,21,0.00,,---,0.00,VWS V13.01,2013-03-29 16:34:00,
2013-03-29 12:44:00,54.3,14.1,29.56,SSW,197,11.4,11.4,20,0.00,,---,0.00,VWS V13.01,2013-03-29 16:44:00,
2013-03-29 12:49:00,55.2,14.9,29.56,SSE,147,5.8,11.4,20,0.00,,---,0.00,VWS V13.01,2013-03-29 16:49:00,
2013-03-29 12:54:00,56.7,16.1,29.56,SE,143,3.1,7.6,20,0.00,,---,0.00,VWS V13.01,2013-03-29 16:54:00,
2013-03-29 12:59:00,57.6,15.6,29.56,WSW,257,0.0,6.3,19,0.00,,---,0.00,VWS V13.01,2013-03-29 16:59:00,
2013-03-29 13:04:00,56.5,15.9,29.56,SSW,203,8.1,14.5,20,0.00,,---,0.00,VWS V13.01,2013-03-29 17:04:00,
2013-03-29 13:09:00,55.2,14.9,29.56,SSW,197,3.1,11.0,20,0.00,,---,0.00,VWS V13.01,2013-03-29 17:09:00,
2013-03-29 13:14:00,54.7,12.0,29.56,SSW,195,8.3,10.5,18,0.00,,---,0.00,VWS V13.01,2013-03-29 17:14:00,
2013-03-29 13:19:00,55.0,14.7,29.56,SSW,199,10.1,13.2,20,0.00,,---,0.00,VWS V13.01,2013-03-29 17:19:00,
2013-03-29 13:24:00,55.9,15.5,29.56,South,171,6.3,10.1,20,0.00,,---,0.00,VWS V13.01,2013-03-29 17:24:00,
2013-03-29 13:29:00,56.5,15.9,29.56,East,90,8.1,9.6,20,0.00,,---,0.00,VWS V13.01,2013-03-29 17:29:00,
2013-03-29 13:34:00,57.4,15.5,29.56,SSE,167,6.7,11.0,19,0.00,,---,0.00,VWS V13.01,2013-03-29 17:34:00,
2013-03-29 13:39:00,57.4,12.9,29.56,SE,138,10.5,12.8,17,0.00,,---,0.00,VWS V13.01,2013-03-29 17:39:00,
2013-03-29 13:44:00,56.8,16.2,29.56,SSE,167,5.4,10.5,20,0.00,,---,0.00,VWS V13.01,2013-03-29 17:44:00,
2013-03-29 13:49:00,56.8,12.5,29.56,South,176,8.1,10.1,17,0.00,,---,0.00,VWS V13.01,2013-03-29 17:49:00,
2013-03-29 13:54:00,56.1,11.9,29.56,SSW,202,5.4,8.7,17,0.00,,---,0.00,VWS V13.01,2013-03-29 17:54:00,
2013-03-29 13:59:00,54.9,12.2,29.56,SSE,167,2.7,8.3,18,0.00,,---,0.00,VWS V13.01,2013-03-29 17:59:00,
2013-03-29 14:04:00,54.5,11.9,29.53,SSW,197,3.1,6.3,18,0.00,,---,0.00,VWS V13.01,2013-03-29 18:04:00,
2013-03-29 14:09:00,54.3,11.7,29.53,South,190,5.8,6.3,18,0.00,,---,0.00,VWS V13.01,2013-03-29 18:09:00,
2013-03-29 14:14:00,54.5,11.9,29.53,SSW,200,2.7,8.7,18,0.00,,---,0.00,VWS V13.01,2013-03-29 18:14:00,
2013-03-29 14:19:00,55.4,11.3,29.53,SE,135,6.3,6.3,17,0.00,,---,0.00,VWS V13.01,2013-03-29 18:19:00,
2013-03-29 14:24:00,55.9,11.8,29.53,South,175,8.1,10.5,17,0.00,,---,0.00,VWS V13.01,2013-03-29 18:24:00,
2013-03-29 14:29:00,59.0,16.8,29.53,West,266,3.6,12.8,19,0.00,,---,0.00,VWS V13.01,2013-03-29 18:29:00,
2013-03-29 14:34:00,60.4,15.4,29.53,SSW,199,3.1,10.1,17,0.00,,---,0.00,VWS V13.01,2013-03-29 18:34:00,
2013-03-29 14:39:00,60.1,15.1,29.53,SW,235,5.4,9.6,17,0.00,,---,0.00,VWS V13.01,2013-03-29 18:39:00,
2013-03-29 14:44:00,59.7,14.9,29.53,SSW,203,6.3,6.3,17,0.00,,---,0.00,VWS V13.01,2013-03-29 18:44:00,
2013-03-29 14:49:00,58.1,13.5,29.53,NNW,331,4.0,8.1,17,0.00,,---,0.00,VWS V13.01,2013-03-29 18:49:00,
2013-03-29 14:54:00,57.6,13.1,29.53,SSW,197,4.0,12.3,17,0.00,,---,0.00,VWS V13.01,2013-03-29 18:54:00,
2013-03-29 14:59:00,57.9,13.4,29.53,East,94,6.3,10.5,17,0.00,,---,0.00,VWS V13.01,2013-03-29 18:59:00,
2013-03-29 15:04:00,59.7,14.9,29.53,South,181,7.6,15.4,17,0.00,,---,0.00,VWS V13.01,2013-03-29 19:04:00,
2013-03-29 15:09:00,60.6,15.6,29.53,SSE,159,8.3,13.6,17,0.00,,---,0.00,VWS V13.01,2013-03-29 19:09:00,
2013-03-29 15:14:00,59.9,15.0,29.53,South,170,6.3,12.8,17,0.00,,---,0.00,VWS V13.01,2013-03-29 19:14:00,
2013-03-29 15:19:00,58.5,13.8,29.53,SE,145,5.4,8.1,17,0.00,,---,0.00,VWS V13.01,2013-03-29 19:19:00,
2013-03-29 15:24:00,57.4,12.9,29.53,South,178,6.3,8.1,17,0.00,,---,0.00,VWS V13.01,2013-03-29 19:24:00,
2013-03-29 15:29:00,56.8,12.5,29.53,SSW,208,7.6,8.1,17,0.00,,---,0.00,VWS V13.01,2013-03-29 19:29:00,
2013-03-29 15:34:00,56.5,12.2,29.53,South,175,5.4,10.5,17,0.00,,---,0.00,VWS V13.01,2013-03-29 19:34:00,
2013-03-29 15:39:00,56.1,11.9,29.53,SE,139,6.3,8.3,17,0.00,,---,0.00,VWS V13.01,2013-03-29 19:39:00,
2013-03-29 15:44:00,55.9,11.8,29.53,SE,126,3.1,7.6,17,0.00,,---,0.00,VWS V13.01,2013-03-29 19:44:00,
2013-03-29 15:49:00,55.6,11.5,29.53,SSW,210,6.3,12.3,17,0.00,,---,0.00,VWS V13.01,2013-03-29 19:49:00,
2013-03-29 15:54:00,55.0,12.3,29.53,SSW,204,6.3,8.3,18,0.00,,---,0.00,VWS V13.01,2013-03-29 19:54:00,
2013-03-29 15:59:00,54.9,12.2,29.53,SW,217,5.8,8.7,18,0.00,,---,0.00,VWS V13.01,2013-03-29 19:59:00,
2013-03-29 16:04:00,54.5,11.9,29.53,SSW,210,6.3,8.7,18,0.00,,---,0.00,VWS V13.01,2013-03-29 20:04:00,
2013-03-29 16:09:00,54.9,12.2,29.53,South,185,7.6,8.7,18,0.00,,---,0.00,VWS V13.01,2013-03-29 20:09:00,
2013-03-29 16:14:00,55.4,11.3,29.53,SSE,160,2.2,7.6,17,0.00,,---,0.00,VWS V13.01,2013-03-29 20:14:00,
2013-03-29 16:19:00,55.6,11.5,29.53,South,173,4.9,6.3,17,0.00,,---,0.00,VWS V13.01,2013-03-29 20:19:00,
2013-03-29 16:24:00,55.4,11.3,29.53,SSW,202,5.8,10.1,17,0.00,,---,0.00,VWS V13.01,2013-03-29 20:24:00,
2013-03-29 16:29:00,55.2,12.5,29.53,SSE,147,2.7,7.6,18,0.00,,---,0.00,VWS V13.01,2013-03-29 20:29:00,
2013-03-29 16:34:00,54.9,12.2,29.53,SE,138,5.4,7.2,18,0.00,,---,0.00,VWS V13.01,2013-03-29 20:34:00,
2013-03-29 16:39:00,54.5,11.9,29.53,SSE,158,6.3,7.6,18,0.00,,---,0.00,VWS V13.01,2013-03-29 20:39:00,
2013-03-29 16:44:00,54.1,11.6,29.53,SSE,163,7.6,10.5,18,0.00,,---,0.00,VWS V13.01,2013-03-29 20:44:00,
2013-03-29 16:49:00,53.8,11.3,29.53,South,181,5.8,8.7,18,0.00,,---,0.00,VWS V13.01,2013-03-29 20:49:00,
2013-03-29 16:54:00,53.4,11.0,29.53,South,174,5.8,9.6,18,0.00,,---,0.00,VWS V13.01,2013-03-29 20:54:00,
2013-03-29 16:59:00,53.2,10.9,29.53,SSE,148,10.1,13.2,18,0.00,,---,0.00,VWS V13.01,2013-03-29 20:59:00,
2013-03-29 17:04:00,53.1,10.7,29.53,SSE,149,5.8,11.0,18,0.00,,---,0.00,VWS V13.01,2013-03-29 21:04:00,
2013-03-29 17:14:00,52.7,10.4,29.53,South,182,8.1,10.1,18,0.00,,---,0.00,VWS V13.01,2013-03-29 21:14:00,
2013-03-29 17:24:00,52.3,10.1,29.53,South,191,10.5,11.0,18,0.00,,---,0.00,VWS V13.01,2013-03-29 21:24:00,
2013-03-29 17:29:00,52.2,10.0,29.53,SSW,192,5.8,10.5,18,0.00,,---,0.00,VWS V13.01,2013-03-29 21:29:00,
2013-03-29 17:39:00,51.8,9.7,29.53,SSW,192,6.3,8.3,18,0.00,,---,0.00,VWS V13.01,2013-03-29 21:39:00,
2013-03-29 17:44:00,51.6,10.7,29.53,SW,226,5.4,8.3,19,0.00,,---,0.00,VWS V13.01,2013-03-29 21:44:00,
2013-03-29 17:49:00,51.6,10.7,29.53,SSW,199,8.7,12.3,19,0.00,,---,0.00,VWS V13.01,2013-03-29 21:49:00,
2013-03-29 17:54:00,51.4,10.6,29.53,South,190,5.4,12.8,19,0.00,,---,0.00,VWS V13.01,2013-03-29 21:54:00,
2013-03-29 17:59:00,51.3,10.4,29.53,SSE,160,8.7,13.2,19,0.00,,---,0.00,VWS V13.01,2013-03-29 21:59:00,
2013-03-29 18:04:00,51.1,10.3,29.53,South,187,8.3,14.1,19,0.00,,---,0.00,VWS V13.01,2013-03-29 22:04:00,
2013-03-29 18:14:00,50.2,9.5,29.53,South,188,10.1,13.6,19,0.00,,---,0.00,VWS V13.01,2013-03-29 22:14:00,
2013-03-29 18:19:00,50.2,9.5,29.53,West,259,8.1,13.2,19,0.00,,---,0.00,VWS V13.01,2013-03-29 22:19:00,
2013-03-29 18:24:00,50.2,9.5,29.53,South,186,6.3,11.0,19,0.00,,---,0.00,VWS V13.01,2013-03-29 22:24:00,
2013-03-29 18:29:00,50.2,9.5,29.53,SSW,202,5.4,12.8,19,0.00,,---,0.00,VWS V13.01,2013-03-29 22:29:00,
2013-03-29 18:34:00,49.8,9.2,29.53,South,183,6.7,12.8,19,0.00,,---,0.00,VWS V13.01,2013-03-29 22:34:00,
2013-03-29 18:39:00,49.8,9.2,29.53,South,170,5.8,14.1,19,0.00,,---,0.00,VWS V13.01,2013-03-29 22:39:00,
2013-03-29 18:44:00,49.5,8.9,29.53,South,187,7.6,10.1,19,0.00,,---,0.00,VWS V13.01,2013-03-29 22:44:00,
2013-03-29 18:49:00,49.5,8.9,29.53,South,181,5.4,10.5,19,0.00,,---,0.00,VWS V13.01,2013-03-29 22:49:00,
2013-03-29 18:59:00,49.3,8.8,29.53,SSE,163,6.7,7.6,19,0.00,,---,0.00,VWS V13.01,2013-03-29 22:59:00,
2013-03-29 19:04:00,49.1,8.6,29.53,South,181,5.8,13.2,19,0.00,,---,0.00,VWS V13.01,2013-03-29 23:04:00,
2013-03-29 19:09:00,49.1,8.6,29.53,SSW,192,8.3,12.8,19,0.00,,---,0.00,VWS V13.01,2013-03-29 23:09:00,
2013-03-29 19:14:00,48.9,8.5,29.53,South,183,5.4,10.5,19,0.00,,---,0.00,VWS V13.01,2013-03-29 23:14:00,
2013-03-29 19:19:00,48.6,8.2,29.53,South,184,2.7,12.3,19,0.00,,---,0.00,VWS V13.01,2013-03-29 23:19:00,
2013-03-29 19:24:00,48.4,8.0,29.53,SSW,195,8.3,11.0,19,0.00,,---,0.00,VWS V13.01,2013-03-29 23:24:00,
2013-03-29 19:29:00,48.4,8.0,29.53,SSW,192,10.5,12.8,19,0.00,,---,0.00,VWS V13.01,2013-03-29 23:29:00,
2013-03-29 19:34:00,48.2,7.9,29.53,South,176,5.4,15.4,19,0.00,,---,0.00,VWS V13.01,2013-03-29 23:34:00,
2013-03-29 19:39:00,48.0,7.7,29.53,SSW,202,3.6,15.0,19,0.00,,---,0.00,VWS V13.01,2013-03-29 23:39:00,
2013-03-29 19:44:00,47.8,7.6,29.53,South,186,11.4,11.4,19,0.00,,---,0.00,VWS V13.01,2013-03-29 23:44:00,
2013-03-29 19:49:00,47.8,10.9,29.56,SSE,161,5.4,11.4,22,0.00,,---,0.00,VWS V13.01,2013-03-29 23:49:00,
2013-03-29 19:54:00,47.7,10.7,29.56,South,176,6.3,10.5,22,0.00,,---,0.00,VWS V13.01,2013-03-29 23:54:00,
2013-03-29 19:59:00,47.5,10.6,29.56,SW,222,3.1,10.5,22,0.00,,---,0.00,VWS V13.01,2013-03-29 23:59:00,
2013-03-29 20:04:00,47.5,10.6,29.56,SSW,198,3.1,7.6,22,0.00,,---,0.00,VWS V13.01,2013-03-30 00:04:00,
2013-03-29 20:09:00,47.5,10.6,29.56,SW,234,4.0,7.2,22,0.00,,---,0.00,VWS V13.01,2013-03-30 00:09:00,
2013-03-29 20:14:00,47.3,10.4,29.56,SSW,200,5.4,13.2,22,0.00,,---,0.00,VWS V13.01,2013-03-30 00:14:00,
2013-03-29 20:19:00,47.1,10.2,29.56,WSW,237,6.3,11.0,22,0.00,,---,0.00,VWS V13.01,2013-03-30 00:19:00,
2013-03-29 20:24:00,47.3,10.4,29.56,SSW,196,3.1,6.3,22,0.00,,---,0.00,VWS V13.01,2013-03-30 00:24:00,
2013-03-29 20:29:00,47.3,10.4,29.56,South,191,3.1,6.3,22,0.00,,---,0.00,VWS V13.01,2013-03-30 00:29:00,
2013-03-29 20:34:00,47.1,10.2,29.56,SSW,197,3.6,6.3,22,0.00,,---,0.00,VWS V13.01,2013-03-30 00:34:00,
2013-03-29 20:39:00,47.1,10.2,29.56,SSE,156,3.1,4.9,22,0.00,,---,0.00,VWS V13.01,2013-03-30 00:39:00,
2013-03-29 20:44:00,46.9,10.1,29.56,South,173,5.8,6.3,22,0.00,,---,0.00,VWS V13.01,2013-03-30 00:44:00,
2013-03-29 20:49:00,46.8,9.9,29.56,SSW,205,5.4,5.8,22,0.00,,---,0.00,VWS V13.01,2013-03-30 00:49:00,
2013-03-29 20:54:00,46.6,9.8,29.56,SSW,193,5.4,5.4,22,0.00,,---,0.00,VWS V13.01,2013-03-30 00:54:00,
2013-03-29 20:59:00,46.4,9.6,29.56,SSW,210,5.4,6.3,22,0.00,,---,0.00,VWS V13.01,2013-03-30 00:59:00,
2013-03-29 21:04:00,46.0,9.3,29.56,SSW,200,4.9,9.6,22,0.00,,---,0.00,VWS V13.01,2013-03-30 01:04:00,
2013-03-29 21:09:00,45.9,9.2,29.56,SW,217,3.6,8.3,22,0.00,,---,0.00,VWS V13.01,2013-03-30 01:09:00,
2013-03-29 21:14:00,45.9,9.2,29.56,SSW,194,0.0,6.7,22,0.00,,---,0.00,VWS V13.01,2013-03-30 01:14:00,
2013-03-29 21:19:00,45.7,9.0,29.56,South,191,3.6,6.3,22,0.00,,---,0.00,VWS V13.01,2013-03-30 01:19:00,
2013-03-29 21:24:00,45.5,8.9,29.56,SW,233,5.4,5.8,22,0.00,,---,0.00,VWS V13.01,2013-03-30 01:24:00,
2013-03-29 21:29:00,45.5,8.9,29.56,SSW,209,3.1,6.3,22,0.00,,---,0.00,VWS V13.01,2013-03-30 01:29:00,
2013-03-29 21:34:00,45.1,8.6,29.56,WSW,258,3.6,7.6,22,0.00,,---,0.00,VWS V13.01,2013-03-30 01:34:00,
2013-03-29 21:44:00,45.1,8.6,29.56,WSW,241,2.2,3.6,22,0.00,,---,0.00,VWS V13.01,2013-03-30 01:44:00,
2013-03-29 21:49:00,45.1,8.6,29.56,WSW,240,3.6,3.6,22,0.00,,---,0.00,VWS V13.01,2013-03-30 01:49:00,
2013-03-29 21:54:00,45.0,8.4,29.56,SSW,213,2.7,5.8,22,0.00,,---,0.00,VWS V13.01,2013-03-30 01:54:00,
2013-03-29 21:59:00,45.0,8.4,29.56,SW,222,0.0,6.3,22,0.00,,---,0.00,VWS V13.01,2013-03-30 01:59:00,
2013-03-29 22:04:00,45.0,8.4,29.56,SSW,194,3.1,6.3,22,0.00,,---,0.00,VWS V13.01,2013-03-30 02:04:00,
2013-03-29 22:09:00,44.8,8.3,29.56,WSW,245,3.1,6.3,22,0.00,,---,0.00,VWS V13.01,2013-03-30 02:09:00,
2013-03-29 22:14:00,44.8,8.3,29.56,South,191,3.1,5.4,22,0.00,,---,0.00,VWS V13.01,2013-03-30 02:14:00,
2013-03-29 22:19:00,44.8,8.3,29.56,SW,221,4.0,8.7,22,0.00,,---,0.00,VWS V13.01,2013-03-30 02:19:00,
2013-03-29 22:24:00,44.6,8.1,29.56,WSW,258,4.9,5.4,22,0.00,,---,0.00,VWS V13.01,2013-03-30 02:24:00,
2013-03-29 22:29:00,44.4,8.9,29.56,SSW,208,4.9,5.4,23,0.00,,---,0.00,VWS V13.01,2013-03-30 02:29:00,
2013-03-29 22:34:00,44.1,8.6,29.56,SSW,213,3.6,5.4,23,0.00,,---,0.00,VWS V13.01,2013-03-30 02:34:00,
2013-03-29 22:39:00,44.1,10.5,29.56,SW,214,2.7,4.9,25,0.00,,---,0.00,VWS V13.01,2013-03-30 02:39:00,
2013-03-29 22:44:00,43.9,10.4,29.56,SW,216,0.0,4.9,25,0.00,,---,0.00,VWS V13.01,2013-03-30 02:44:00,
2013-03-29 22:49:00,43.7,10.2,29.56,SW,216,0.0,4.0,25,0.00,,---,0.00,VWS V13.01,2013-03-30 02:49:00,
2013-03-29 22:54:00,43.7,10.2,29.56,SW,216,0.0,4.0,25,0.00,,---,0.00,VWS V13.01,2013-03-30 02:54:00,
2013-03-29 22:59:00,43.5,10.0,29.56,SW,216,0.0,3.1,25,0.00,,---,0.00,VWS V13.01,2013-03-30 02:59:00,
2013-03-29 23:04:00,43.3,9.9,29.56,SW,215,0.0,2.7,25,0.00,,---,0.00,VWS V13.01,2013-03-30 03:04:00,
2013-03-29 23:09:00,43.0,9.6,29.56,SW,217,3.1,4.9,25,0.00,,---,0.00,VWS V13.01,2013-03-30 03:09:00,
2013-03-29 23:14:00,43.0,9.6,29.56,SW,217,2.7,4.0,25,0.00,,---,0.00,VWS V13.01,2013-03-30 03:14:00,
2013-03-29 23:19:00,43.0,9.6,29.56,SW,217,0.0,4.0,25,0.00,,---,0.00,VWS V13.01,2013-03-30 03:19:00,
2013-03-29 23:24:00,42.8,12.0,29.56,SW,217,2.7,5.8,28,0.00,,---,0.00,VWS V13.01,2013-03-30 03:24:00,
2013-03-29 23:29:00,42.6,11.8,29.56,SW,217,2.7,3.6,28,0.00,,---,0.00,VWS V13.01,2013-03-30 03:29:00,
2013-03-29 23:34:00,42.3,11.5,29.56,SW,217,3.1,4.0,28,0.00,,---,0.00,VWS V13.01,2013-03-30 03:34:00,
2013-03-29 23:39:00,42.1,11.3,29.56,SW,217,3.1,4.0,28,0.00,,---,0.00,VWS V13.01,2013-03-30 03:39:00,
2013-03-29 23:44:00,41.7,11.0,29.56,SW,218,3.6,4.9,28,0.00,,---,0.00,VWS V13.01,2013-03-30 03:44:00,
2013-03-29 23:49:00,41.5,10.9,29.56,SW,217,5.8,5.8,28,0.00,,---,0.00,VWS V13.01,2013-03-30 03:49:00,
2013-03-29 23:54:00,41.5,10.9,29.56,SW,217,0.0,5.8,28,0.00,,---,0.00,VWS V13.01,2013-03-30 03:54:00,
2013-03-29 23:59:00,41.5,10.9,29.56,SW,218,2.2,4.9,28,0.00,,---,0.00,VWS V13.01,2013-03-30 03:59:00,